User: anonymous   Login
Location: SAPM � Hemmingford
(45.0500°N, 73.5833°W)
Time: 15:37:30
(UTC-05:00)
Language:

Cosmos 1674 Rocket - Orbit

View from above orbital plane
View from above orbital plane
View from above satellite
View from above satellite

Ground track
Ground track

The orbit data is extracted from the following two-line orbital elements,

1 15945U 85069B   18020.20890854  .00000091  00000-0  80998-5 0  9998
2 15945  82.5292 289.7686 0018279 287.5280  72.3938 14.83958322753214
Epoch (UTC): 20 January 2018 05:00:49
Eccentricity: 0.0018279
inclination: 82.5292°
perigee height: 604 km
apogee height: 629 km
right ascension of ascending node: 289.7686°
argument of perigee: 287.5280°
revolutions per day: 14.83958322
mean anomaly at epoch: 72.3938°
orbit number at epoch: 75321

The dashed part of the orbit path shows where the satellite is in the earth's shadow,  

DLR